DECAYED
Showing default

BKA 2, 38708 (Decayed)

Orbit data source: Space-Track

BKA 2, 38708 was a payload satellite owned by AN Belarus (BY) in LEO that was launched on Sun, 22 Jul 2012 UTC via a SOYUZ-FG launch vehicle from the Tyuratam Missile And Space Complex (TTMTR). Payload-class satellites include a variety of spacecraft equipped with specific instruments for various scientific and technological missions. These include communications satellites like Starlink; space stations such as the ISS; scientific satellites like the Hubble; Earth observation satellites from companies like Planet Labs, Umbra, and HawkEye 360; GPS; miniature CubeSats for education and research; and military/defense satellites.

Not visible in the next 10 days
Identifier
38708, 2012-039B
Orbit
Decayed
Country
Flag of UnknownUnknown / BELA
Related business
Flag of BYNational Academy of Sciences of Belarus (BY)
Manufacturer
VNIIEM
Mission
Decayed Civil Imaging
Bus & Motor
KANOPUS, Unknown motor
Mass
400 kg wet, 400 kg dry
Launch date (UTC)
2012-07-22 (13 years ago)
Launch vehicle
SOYUZ-FG
Launch site
Tyuratam Missile And Space Complex (TTMTR)
Object type
Payload
Rocket body
Debris
Shape & HBR
Box + 2 Pan, 3.0 m
Radar Cross Section
1.665 m², Large (>1 m²)

Expand to show TLE details & history
Last TLE update: 11 months ago

TLE from 11 months ago
0 BKA 2
1 38708U 12039B   24291.25338330  .17019731  26811-5  29005-3 0  9997
2 38708  97.2045 196.3251 0003310 233.3532 256.6219 16.48098683680536
Epoch: 2024-10-17T06:04Z
TLE epoch observation values (Epoch: 2024-10-17T06:04:52.317Z)
Latitude
49.63409°
Longitude
-92.63054°
Altitude
152.856 km
Speed
7.819 km/s
True Right ascension
01h 39m 18s
True Declination
49° 26' 55"
Sunlit
Object was in full shadow at epoch
Visualization orbit readout
Latitude
Unknown
Longitude
Unknown
Altitude
Unknown
Speed
Unknown
Apparent Right ascension
Unknown
Apparent Declination
Unknown
Sunlit
N/A
Visualization observer readout
Local Sidereal Time
21:38:54
Azimuth
Unknown
Elevation
Unknown
Doppler factor
Unknown
Orbital elements
Apogee altitude
143.293 km
Perigee altitude
138.978 km
Semi-major axis
6,519.273 km
Eccentricity
0.00033
Inclination
97.2045°
RAAN
196.3251°
Arg. of periapsis
233.3532°
True anomaly
256.585°
Mean anomaly
256.6219°
Eccentric anomaly
256.60345°
Mean motion
4.1233 °/min
Orbital period
87.31 mins
BSTAR
0.00029005
Loading maneuver chart data...
Computing Atmospheric mass density...
Loading historical data...
Loading historical data...
Loading historical data...
Loading historical data...
Loading historical data...
Loading historical data...
Loading historical data...

Documentation

Showing up to 5 results
|